La Paz, Mexico

12:10 AM MDT on April 26, 2017 (GMT -0600)
Gen Manuel Marquez De Leon

Weather History for MMLP - January, 2014

Change the Weather History Date:

Saturday, January 18, 2014

  Actual Average Record
Temperature  
Mean Temperature 63 °F -  
Max Temperature 79 °F 76 °F 82 °F (2000)
Min Temperature 48 °F 53 °F 48 °F (2014)
Degree Days  
Heating Degree Days 2    
Growing Degree Days 13 (Base 50)    
Moisture  
Dew Point 44 °F    
Average Humidity 46    
Maximum Humidity 76    
Minimum Humidity 23    
Precipitation  
Precipitation 0.00 in - - ()
Sea Level Pressure  
Sea Level Pressure 30.06 in    
Wind  
Wind Speed 4 mph ()    
Max Wind Speed 12 mph    
Max Gust Speed -    
Visibility 9.0 miles    
Events      
Averages and records for this station are not official NWS values.
T = Trace of Precipitation, MM = Missing Value Source: Averaged Metar Reports

Daily Weather History Graph

Daily Weather History Graph

Search for Another Location

Airport or City:

Trip Planner

Search our weather history database for the weather conditions in past years. The results will help you decide how hot, cold, wet, or windy it might be!

Date:

Astronomy

Jan. 18, 2014 Rise Set
Actual Time 7:06 AM MST 5:57 PM MST
Civil Twilight 6:42 AM MST 6:21 PM MST
Nautical Twilight 6:14 AM MST 6:49 PM MST
Astronomical Twilight 5:47 AM MST 7:17 PM MST
Moon 8:20 PM MST (1/18) 8:27 AM MST (1/18)
Length of Visible Light 11h 39m
Length of Day
10h 51m
Waning Gibbous, 94% of the Moon is Illuminated
Jan 18
Waning Gibbous
Jan 23
Last Quarter
Jan 30
New
Feb 6
First Quarter
Feb 14
Full

Hourly Weather History & Observations

Time (MST) Temp. Windchill Dew Point Humidity Pressure Visibility Wind Dir Wind Speed Gust Speed Precip Events Conditions
1:45 AM 58 °F - 48 °F 61% 30.02 in 2 mi WSW 2.2 mph - -   Clear
4:50 AM 55 °F - 44 °F 58% 30.01 in 2 mi NE 2.2 mph - -   Clear
6:03 AM 41.0 °F - 33.8 °F 76% 30.03 in 10.0 mi Calm Calm - N/A   Partly Cloudy
7:49 AM 42.8 °F 40.1 °F 35.6 °F 76% 30.18 in 10.0 mi South 4.6 mph - N/A   Scattered Clouds
7:50 AM 54 °F - 45 °F 62% 30.04 in 12 mi SE 2.2 mph - -   Clear
8:43 AM 51.8 °F - 41.0 °F 67% 30.07 in 10.0 mi South 4.6 mph - N/A   Mostly Cloudy
9:41 AM 64.4 °F - 46.4 °F 52% 30.03 in 12.0 mi Calm Calm - N/A   Mostly Cloudy
10:41 AM 71.6 °F - 41.0 °F 33% 30.20 in 10.0 mi NNW 6.9 mph - N/A   Scattered Clouds
10:50 AM 74 °F - 53 °F 38% 30.09 in 19 mi WNW 2.2 mph - -   Clear
11:40 AM 71.6 °F - 42.8 °F 35% 30.07 in 10.0 mi WNW 6.9 mph - N/A   Scattered Clouds
12:44 PM 75.2 °F - 42.8 °F 31% 30.03 in 10.0 mi North 6.9 mph - N/A   Mostly Cloudy
1:40 PM 75.2 °F - 39.2 °F 27% 30.15 in 10.0 mi North 11.5 mph - N/A   Mostly Cloudy
1:50 PM 78 °F - 47 °F 23% 30.00 in 19 mi NNW 6.7 mph - -   Clear
2:40 PM 73.4 °F - 46.4 °F 38% 29.98 in 10.0 mi North 10.4 mph - N/A   Mostly Cloudy
3:40 PM 75.2 °F - 37.4 °F 25% 30.00 in 10.0 mi North 10.4 mph - N/A   Mostly Cloudy
4:40 PM 73.4 °F - 42.8 °F 33% 30.14 in 10.0 mi North 8.1 mph - N/A   Mostly Cloudy
4:50 PM 76 °F - 48 °F 26% 30.00 in 2 mi NE 6.7 mph - -   Clear
5:00 PM 76 °F - 48 °F 26%  in 2 mi NE 6.7 mph - -  
5:40 PM 69.8 °F - 50.0 °F 49% 30.00 in 10.0 mi NNW 5.8 mph - N/A   Scattered Clouds
6:40 PM 66.2 °F - 44.6 °F 46% 30.02 in 10.0 mi North 3.5 mph - N/A   Scattered Clouds
7:40 PM 64.4 °F - 42.8 °F 45% 30.16 in 10.0 mi Calm Calm - N/A   Scattered Clouds
7:50 PM 67 °F - 47 °F 37% 30.03 in 2 mi NE 4.5 mph - -   Clear
8:40 PM 60.8 °F - 42.8 °F 52% 30.06 in 10.0 mi Calm Calm - N/A   Scattered Clouds
9:40 PM 57.2 °F - 46.4 °F 67% 30.06 in 10.0 mi WSW 3.5 mph - N/A   Mostly Cloudy
10:40 PM 53.6 °F - 42.8 °F 67% 30.21 in 10.0 mi SSE 3.5 mph - N/A   Mostly Cloudy
10:45 PM 64 °F - 47 °F 43% 30.03 in 2 mi West 2.2 mph - -   Mostly Cloudy